Date/Time,Electricity:Facility [kW](Hourly),Fans:Electricity [kW](Hourly),Cooling:Electricity [kW](Hourly),Heating:Electricity [kW](Hourly),InteriorLights:Electricity [kW](Hourly),InteriorEquipment:Electricity [kW](Hourly),Gas:Facility [kW](Hourly),Heating:Gas [kW](Hourly),Water Heater:WaterSystems:Gas [kW](Hourly),Electricity:Facility [kW](Monthly)
 01/01  01:00:00,37.3006451395,0.435938843058,0.345951749516,2.94340237069,2.68041601173,16.0824960704,0.02,0.0,0.02
 01/01  02:00:00,33.5753521762,0.0,0.0,0.0,2.68041601173,16.0824960704,0.02,0.0,0.02
 01/01  03:00:00,33.5753521762,0.0,0.0,0.0,2.68041601173,16.0824960704,1.10295331706,0.0,1.10295331706
 01/01  04:00:00,33.5753521762,0.0,0.0,0.0,2.68041601173,16.0824960704,0.02,0.0,0.02
 01/01  05:00:00,33.5753521762,0.0,0.0,0.0,2.68041601173,16.0824960704,1.10295353086,0.0,1.10295353086
 01/01  06:00:00,33.5753521762,0.0,0.0,0.0,2.68041601173,16.0824960704,0.02,0.0,0.02
 01/01  07:00:00,33.5753521762,0.0,0.0,0.0,2.68041601173,16.0824960704,0.02,0.0,0.02
 01/01  08:00:00,28.6406855095,0.0,0.0,0.0,2.68041601173,16.0824960704,1.10295344991,0.0,1.10295344991
 01/01  09:00:00,18.7713521762,0.0,0.0,0.0,2.68041601173,16.0824960704,0.02,0.0,0.02
 01/01  10:00:00,18.7713521762,0.0,0.0,0.0,2.68041601173,16.0824960704,1.1029529294,0.0,1.1029529294
 01/01  11:00:00,18.7713521762,0.0,0.0,0.0,2.68041601173,16.0824960704,0.02,0.0,0.02
 01/01  12:00:00,18.7713521762,0.0,0.0,0.0,2.68041601173,16.0824960704,1.10303971588,0.0,1.10303971588
 01/01  13:00:00,18.7713521762,0.0,0.0,0.0,2.68041601173,16.0824960704,0.02,0.0,0.02
 01/01  14:00:00,18.7713521762,0.0,0.0,0.0,2.68041601173,16.0824960704,1.10316707127,0.0,1.10316707127
 01/01  15:00:00,18.7713521762,0.0,0.0,0.0,2.68041601173,16.0824960704,0.02,0.0,0.02
 01/01  16:00:00,18.7713521762,0.0,0.0,0.0,2.68041601173,16.0824960704,1.10295339757,0.0,1.10295339757
 01/01  17:00:00,18.7713521762,0.0,0.0,0.0,2.68041601173,16.0824960704,0.02,0.0,0.02
 01/01  18:00:00,26.1733521762,0.0,0.0,0.0,2.68041601173,16.0824960704,0.02,0.0,0.02
 01/01  19:00:00,33.5753521762,0.0,0.0,0.0,2.68041601173,16.0824960704,1.10295351599,0.0,1.10295351599
 01/01  20:00:00,35.0983248923,0.186830932739,0.239954358918,1.09618742448,2.68041601173,16.0824960704,0.02,0.0,0.02
 01/01  21:00:00,39.6319940996,0.747323730957,1.04888846485,4.26042972756,2.68041601173,16.0824960704,1.10299090984,0.0,1.10299090984
 01/01  22:00:00,39.8657078857,0.747323730957,0.93043200547,4.61259997311,2.68041601173,16.0824960704,0.02,0.0,0.02
 01/01  23:00:00,41.9618645828,0.934154663696,0.947143691234,6.5052140517,2.68041601173,16.0824960704,1.10295390871,0.0,1.10295390871
 01/01  24:00:00,40.6123486726,0.747323730957,0.672052193125,5.61762057237,2.68041601173,16.0824960704,0.02,0.0,0.02
 01/02  01:00:00,48.0136961497,0.934154663696,0.66144082041,7.48191646594,2.68041601173,21.4433280938,0.02,0.0,0.02
 01/02  02:00:00,46.3189992959,0.747323730957,0.493022263573,6.14246910174,2.68041601173,21.4433280938,1.10304433347,0.0,1.10304433347
 01/02  03:00:00,48.7083273822,0.934154663696,0.495845651412,8.34214286742,2.68041601173,21.4433280938,0.02,0.0,0.02
 01/02  04:00:00,46.8327976681,0.747323730957,0.372803713602,6.77648602385,2.68041601173,21.4433280938,1.10304402366,0.0,1.10304402366
 01/02  05:00:00,49.5183281904,0.934154663696,0.330643970263,9.31734535675,2.68041601173,21.4433280938,0.02,0.0,0.02
 01/02  06:00:00,50.1587506082,0.747323730957,0.275166508268,7.51966015758,5.36083202345,21.4433280938,1.10312728859,0.0,1.10312728859
 01/02  07:00:00,237.063657868,3.17840839121,10.1031877324,182.165461533,5.36083202345,21.4433280938,0.02,0.0,0.02
 01/02  08:00:00,199.074648983,3.17840839121,0.0,137.254181462,16.0824960704,32.6817896323,23.3687070617,22.2651456332,1.10356142848
 01/02  09:00:00,209.170693669,3.17840839121,0.0,87.333044586,48.2474882111,70.4033123869,19.3040806427,17.1154941122,2.18858653044
 01/02  10:00:00,184.282244195,3.17840839121,0.0,70.7931665403,48.2474882111,62.0547409583,11.5516030367,9.36288412127,2.18871891545
 01/02  11:00:00,170.36518043,3.17840839121,0.0478289979892,58.7548671837,48.2474882111,60.1281475517,4.07361158852,1.88467554393,2.1889360446
 01/02  12:00:00,161.205348193,3.17840839121,0.756799632282,46.9594709061,48.2474882111,62.0547409583,2.18947177005,0.0,2.18947177005
 01/02  13:00:00,157.484665694,3.17840839121,1.66543334907,42.8745031975,48.2474882111,61.5103924513,3.27606295688,0.0,3.27606295688
 01/02  14:00:00,146.926290324,3.17840839121,2.87419832721,28.9575198365,48.2474882111,63.6602354638,2.19038760797,0.0,2.19038760797
 01/02  15:00:00,140.341265571,3.17840839121,3.21323744107,25.5655438822,48.2474882111,60.1281475517,2.18890126006,0.0,2.18890126006
 01/02  16:00:00,141.261753452,3.17840839121,3.07735121115,26.6219179927,48.2474882111,60.1281475517,2.18839801249,0.0,2.18839801249
 01/02  17:00:00,143.702223674,3.17840839121,3.19163483894,26.0582144767,48.2474882111,63.0180376616,2.18909766289,0.0,2.18909766289
 01/02  18:00:00,147.420998395,3.17840839121,2.44478914816,34.066748542,37.5258241642,62.7947880557,1.10397512609,0.0,1.10397512609
 01/02  19:00:00,128.749555012,3.17840839121,1.67431255719,46.2620548986,26.8041601173,36.0181789539,2.18751838946,0.0,2.18751838946
 01/02  20:00:00,127.940706739,3.17840839121,1.19271084887,48.5035995426,26.8041601173,33.4493877451,0.02,0.0,0.02
 01/02  21:00:00,122.973220757,3.17840839121,0.384409879753,60.4269106004,16.0824960704,28.0885557216,1.34427198223,0.240776540059,1.10349544217
 01/02  22:00:00,124.587742491,3.17840839121,0.110046020983,63.6001917968,16.0824960704,26.8041601173,1.75809139224,0.654785214291,1.10330617795
 01/02  23:00:00,41.6166002114,0.0,0.0,0.0,5.36083202345,21.4433280938,1.10299352135,0.0,1.10299352135
 01/02  24:00:00,38.9361841996,0.0,0.0,0.0,2.68041601173,21.4433280938,0.02,0.0,0.02
 01/03  01:00:00,38.9361841996,0.0,0.0,0.0,2.68041601173,21.4433280938,0.02,0.0,0.02
 01/03  02:00:00,38.9361841996,0.0,0.0,0.0,2.68041601173,21.4433280938,1.10299616314,0.0,1.10299616314
 01/03  03:00:00,38.9361841996,0.0,0.0,0.0,2.68041601173,21.4433280938,0.02,0.0,0.02
 01/03  04:00:00,38.9361841996,0.0,0.0,0.0,2.68041601173,21.4433280938,1.1029957229,0.0,1.1029957229
 01/03  05:00:00,38.9361841996,0.0,0.0,0.0,2.68041601173,21.4433280938,0.02,0.0,0.02
 01/03  06:00:00,41.6166002114,0.0,0.0,0.0,5.36083202345,21.4433280938,1.10313239912,0.0,1.10313239912
 01/03  07:00:00,170.52375613,3.17840839121,10.9935980182,114.735149509,5.36083202345,21.4433280938,0.02,0.0,0.02
 01/03  08:00:00,149.33316687,3.17840839121,0.0,87.5126993485,16.0824960704,32.6817896323,21.4279490289,20.3243701478,1.1035788811
 01/03  09:00:00,175.177230523,3.17840839121,0.0,53.3395814394,48.2474882111,70.4033123869,22.3916403902,20.2030956032,2.18854478703
 01/03  10:00:00,159.628594235,3.17840839121,0.0,46.1395165804,48.2474882111,62.0547409583,23.3885267026,21.1997514542,2.18877524843
 01/03  11:00:00,153.27518971,3.17840839121,0.0,41.7127054615,48.2474882111,60.1281475517,22.9030531827,20.714328316,2.18872486667
 01/03  12:00:00,150.798224633,3.17840839121,0.0,37.3091469781,48.2474882111,62.0547409583,20.9795891189,18.790046637,2.18954248184
 01/03  13:00:00,154.283575371,3.17840839121,0.0,41.3388462235,48.2474882111,61.5103924513,20.5585000427,17.2828697411,3.27563030158
 01/03  14:00:00,147.011322975,3.17840839121,0.0,31.9167508147,48.2474882111,63.6602354638,17.2717893731,15.0816870739,2.19010229914
 01/03  15:00:00,141.136584541,3.17840839121,0.0,29.5741002932,48.2474882111,60.1281475517,15.5844315584,13.3954434323,2.18898812611
 01/03  16:00:00,138.815681039,3.17840839121,0.0,27.2531967914,48.2474882111,60.1281475517,15.2033080913,13.0148208561,2.18848723522
 01/03  17:00:00,142.402270681,3.17840839121,0.0,27.9498963231,48.2474882111,63.0180376616,14.7885433783,12.5993453729,2.18919800536
 01/03  18:00:00,145.452465514,3.20087887074,0.0,34.5205343297,37.5258241642,62.7947880557,13.4575303247,12.3536306268,1.1038996979
 01/03  19:00:00,125.334765853,3.17840839121,0.0,44.5215782969,26.8041601173,36.0181789539,16.3936593753,14.2060398734,2.18761950193
 01/03  20:00:00,124.973692722,3.17840839121,0.0,46.7292963747,26.8041601173,33.4493877451,15.9675420818,14.864145315,1.10339676673
 01/03  21:00:00,118.821097337,3.17840839121,0.0,56.6591970595,16.0824960704,28.0885557216,14.4921711888,14.4721711888,0.02
 01/03  22:00:00,120.392628063,3.17840839121,0.0,59.5151233899,16.0824960704,26.8041601173,13.290737725,12.1874002572,1.10333746778
 01/03  23:00:00,41.6166002114,0.0,0.0,0.0,5.36083202345,21.4433280938,1.10299231113,0.0,1.10299231113
 01/03  24:00:00,38.9361841996,0.0,0.0,0.0,2.68041601173,21.4433280938,0.02,0.0,0.02
 01/04  01:00:00,38.9361841996,0.0,0.0,0.0,2.68041601173,21.4433280938,0.02,0.0,0.02
 01/04  02:00:00,38.9361841996,0.0,0.0,0.0,2.68041601173,21.4433280938,1.10299672741,0.0,1.10299672741
 01/04  03:00:00,38.9361841996,0.0,0.0,0.0,2.68041601173,21.4433280938,0.02,0.0,0.02
 01/04  04:00:00,38.9361841996,0.0,0.0,0.0,2.68041601173,21.4433280938,1.10299524113,0.0,1.10299524113
 01/04  05:00:00,38.9361841996,0.0,0.0,0.0,2.68041601173,21.4433280938,0.02,0.0,0.02
 01/04  06:00:00,41.6166002114,0.0,0.0,0.0,5.36083202345,21.4433280938,1.1031235048,0.0,1.1031235048
 01/04  07:00:00,160.103171326,3.17840839121,11.5776011876,103.730561536,5.36083202345,21.4433280938,0.02,0.0,0.02
 01/04  08:00:00,140.566661559,3.17840839121,0.0,78.7461940375,16.0824960704,32.6817896323,15.1001479064,13.9966576328,1.10349027358
 01/04  09:00:00,165.67275488,3.17840839121,0.0,43.8351057971,48.2474882111,70.4033123869,14.4924140403,12.3041275808,2.1882864595
 01/04  10:00:00,142.087349455,3.17840839121,0.0,28.5982718002,48.2474882111,62.0547409583,12.5389435319,10.3500425364,2.18890099554
 01/04  11:00:00,132.717729391,3.17840839121,0.0,21.1552451427,48.2474882111,60.1281475517,8.90451584074,6.71565984221,2.18885599853
 01/04  12:00:00,132.292404106,3.18055661818,0.0,18.8011782242,48.2474882111,62.0547409583,4.87990884854,2.69022226962,2.18968657892
 01/04  13:00:00,135.088771694,3.21005408279,0.472196190167,21.6402006644,48.2474882111,61.5103924513,3.27545581814,0.0,3.27545581814
 01/04  14:00:00,131.209272385,3.22008964227,1.70960034198,14.363418632,48.2474882111,63.6602354638,2.19025023989,0.0,2.19025023989
 01/04  15:00:00,125.174978162,3.21215390453,2.32141655494,11.2573318455,48.2474882111,60.1281475517,2.1891434531,0.0,2.1891434531
 01/04  16:00:00,124.068852182,3.17863109596,1.87374915804,10.6323960715,48.2474882111,60.1281475517,2.18842750978,0.0,2.18842750978
 01/04  17:00:00,128.741613286,3.19760946841,1.46587916368,12.8041586871,48.2474882111,63.0180376616,2.18936668989,0.0,2.18936668989
 01/04  18:00:00,130.82957205,3.27455520954,1.11997744491,18.7039870813,37.5258241642,62.7947880557,2.18781775518,0.0,2.18781775518
 01/04  19:00:00,110.242001374,3.17840839121,0.0260229100607,29.4027909071,26.8041601173,36.0181789539,3.20849068159,2.10485973712,1.10363094447
 01/04  20:00:00,112.697659532,3.17840839121,0.0,34.4532631843,26.8041601173,33.4493877451,8.62959044938,7.52613369716,1.10345675222
 01/04  21:00:00,105.889441411,3.17840839121,0.0,43.727541134,16.0824960704,28.0885557216,13.8618325456,12.7583114379,1.10352110762
 01/04  22:00:00,109.951477442,3.17840839121,0.0,49.0739727694,16.0824960704,26.8041601173,16.4915253369,16.4715253369,0.02
 01/04  23:00:00,41.6166002114,0.0,0.0,0.0,5.36083202345,21.4433280938,1.10299730763,0.0,1.10299730763
 01/04  24:00:00,38.9361841996,0.0,0.0,0.0,2.68041601173,21.4433280938,0.02,0.0,0.02
 01/05  01:00:00,38.9361841996,0.0,0.0,0.0,2.68041601173,21.4433280938,1.10299289709,0.0,1.10299289709
 01/05  02:00:00,38.9361841996,0.0,0.0,0.0,2.68041601173,21.4433280938,0.02,0.0,0.02
 01/05  03:00:00,38.9361841996,0.0,0.0,0.0,2.68041601173,21.4433280938,0.02,0.0,0.02
 01/05  04:00:00,38.9361841996,0.0,0.0,0.0,2.68041601173,21.4433280938,1.10299709212,0.0,1.10299709212
 01/05  05:00:00,38.9361841996,0.0,0.0,0.0,2.68041601173,21.4433280938,0.02,0.0,0.02
 01/05  06:00:00,41.6166002114,0.0,0.0,0.0,5.36083202345,21.4433280938,1.10311762994,0.0,1.10311762994
 01/05  07:00:00,174.869227549,3.17840839121,10.6114696133,119.462749333,5.36083202345,21.4433280938,0.105776259153,0.0857762591535,0.02
 01/05  08:00:00,152.846080672,3.17840839121,0.0,91.025613151,16.0824960704,32.6817896323,50.2270059664,48.0401619453,2.18684402115
 01/05  09:00:00,174.635570408,3.17840839121,0.0,52.7979213248,48.2474882111,70.4033123869,45.6153775885,44.5111107186,1.10426686986
 01/05  10:00:00,149.632833212,3.17840839121,0.0,36.1437555568,48.2474882111,62.0547409583,43.4436819869,41.2547370367,2.18894495017
 01/05  11:00:00,139.353304663,3.17840839121,0.0,27.7908204153,48.2474882111,60.1281475517,38.0731846741,35.8841330782,2.18905159596
 01/05  12:00:00,139.297164536,3.183594955,0.0,25.8029003179,48.2474882111,62.0547409583,29.6453959363,27.4558276715,2.18956826476
 01/05  13:00:00,141.675519136,3.22391079748,0.0,28.6852875818,48.2474882111,61.5103924513,21.8434288429,18.5680462305,3.27538261245
 01/05  14:00:00,135.967993819,3.34927439359,0.0,20.7025556564,48.2474882111,63.6602354638,13.8183511651,10.5428249099,3.27552625516
 01/05  15:00:00,127.875155152,3.31519744857,0.0,16.1758818465,48.2474882111,60.1281475517,8.69658387189,7.59238583857,1.10419803333
 01/05  16:00:00,126.043136588,3.18391313967,0.0,14.4751475918,48.2474882111,60.1281475517,13.0085754496,10.8201615883,2.18841386134
 01/05  17:00:00,130.0459702,3.20644629788,0.0,15.565557935,48.2474882111,63.0180376616,16.3979006156,14.2086059886,2.18929462703
 01/05  18:00:00,133.409312826,3.28681905803,0.0,22.3914414542,37.5258241642,62.7947880557,20.4815755387,18.2934394929,2.18813604576
 01/05  19:00:00,116.561012395,3.17840839121,0.0,35.7478248384,26.8041601173,36.0181789539,28.1979758209,27.0942454891,1.10373033185
 01/05  20:00:00,119.503878902,3.17840839121,0.0,41.2594825544,26.8041601173,33.4493877451,32.1258003445,31.0223488237,1.10345152078
 01/05  21:00:00,113.06387429,3.17840839121,0.0,50.9019740129,16.0824960704,28.0885557216,36.539115249,35.4356086091,1.10350663988
 01/05  22:00:00,117.347648242,3.17840839121,0.0,56.4701435695,16.0824960704,26.8041601173,39.1908638653,39.1708638653,0.02
 01/05  23:00:00,41.6166002114,0.0,0.0,0.0,5.36083202345,21.4433280938,1.10305426074,0.0,1.10305426074
 01/05  24:00:00,38.9361841996,0.0,0.0,0.0,2.68041601173,21.4433280938,0.02,0.0,0.02
 01/06  01:00:00,38.9361841996,0.0,0.0,0.0,2.68041601173,21.4433280938,1.10299683467,0.0,1.10299683467
 01/06  02:00:00,38.9361841996,0.0,0.0,0.0,2.68041601173,21.4433280938,0.02,0.0,0.02
 01/06  03:00:00,38.9361841996,0.0,0.0,0.0,2.68041601173,21.4433280938,1.10299727621,0.0,1.10299727621
 01/06  04:00:00,38.9361841996,0.0,0.0,0.0,2.68041601173,21.4433280938,0.02,0.0,0.02
 01/06  05:00:00,45.746856672,0.934154663696,0.0852202425617,5.79129756613,2.68041601173,21.4433280938,1.4620430185,0.359046158009,1.10299686049
 01/06  06:00:00,47.7345501711,0.747323730957,0.078288487866,5.29233774091,5.36083202345,21.4433280938,0.170286730491,0.150286730491,0.02
 01/06  07:00:00,184.11915988,3.17840839121,10.1864203299,129.137730947,5.36083202345,21.4433280938,1.2044268711,0.101344826634,1.10308204446
 01/06  08:00:00,159.819244381,3.17840839121,0.0,97.99877686,16.0824960704,32.6817896323,57.7676960038,56.6640574173,1.10363858656
 01/06  09:00:00,183.248903177,3.17840839121,0.0,61.4112540933,48.2474882111,70.4033123869,54.2397268368,53.1353329699,1.10439386695
 01/06  10:00:00,162.732422798,3.17840839121,0.0,49.2433451429,48.2474882111,62.0547409583,52.4395337351,50.2507880255,2.18874570961
 01/06  11:00:00,154.262806376,3.17840839121,0.0,42.7003221276,48.2474882111,60.1281475517,48.9678655637,46.7791167529,2.18874881087
 01/06  12:00:00,151.647079709,3.17840839121,0.0,38.1580020539,48.2474882111,62.0547409583,43.8765839992,41.6872105979,2.18937340137
 01/06  13:00:00,155.889840969,3.17840839121,0.0,42.945111821,48.2474882111,61.5103924513,40.6265432748,37.350742364,3.27580091075
 01/06  14:00:00,148.304456887,3.17840839121,0.0,33.2098847268,48.2474882111,63.6602354638,37.3087411199,34.0331071218,3.27563399809
 01/06  15:00:00,138.564993315,3.17840839121,0.0,27.0025090665,48.2474882111,60.1281475517,34.4494719692,32.2609280753,2.18854389387
 01/06  16:00:00,140.541054975,3.17840839121,0.0,28.9785707272,48.2474882111,60.1281475517,31.4245341394,30.3202623643,1.10427177509
 01/06  17:00:00,144.323716449,3.17840839121,0.0,29.8713420906,48.2474882111,63.0180376616,31.0534773949,28.8643781306,2.18909926429
 01/06  18:00:00,147.884208581,3.23720115011,0.0,36.915955117,37.5258241642,62.7947880557,29.9081202519,27.7198837854,2.18823646658
 01/06  19:00:00,128.091301158,3.17840839121,0.0,47.278113602,26.8041601173,36.0181789539,33.1957316797,32.0920116512,1.10372002852
 01/06  20:00:00,128.493378265,3.17840839121,0.0,50.2489819169,26.8041601173,33.4493877451,35.0501662295,33.9466980611,1.10346816838
 01/06  21:00:00,121.98663459,3.17840839121,0.0,59.8247343128,16.0824960704,28.0885557216,34.8563994599,33.7528832101,1.10351624979
 01/06  22:00:00,124.980894226,3.17840839121,0.0,64.1033895527,16.0824960704,26.8041601173,34.4953050098,33.3921844325,1.10312057721
 01/06  23:00:00,41.6166002114,0.0,0.0,0.0,5.36083202345,21.4433280938,0.02,0.0,0.02
 01/06  24:00:00,38.9361841996,0.0,0.0,0.0,2.68041601173,21.4433280938,0.02,0.0,0.02
 01/07  01:00:00,33.5753521762,0.0,0.0,0.0,2.68041601173,16.0824960704,1.10299584502,0.0,1.10299584502
 01/07  02:00:00,33.5753521762,0.0,0.0,0.0,2.68041601173,16.0824960704,0.02,0.0,0.02
 01/07  03:00:00,33.5753521762,0.0,0.0,0.0,2.68041601173,16.0824960704,1.1029968737,0.0,1.1029968737
 01/07  04:00:00,33.5753521762,0.0,0.0,0.0,2.68041601173,16.0824960704,0.02,0.0,0.02
 01/07  05:00:00,36.4079515623,0.373661865478,0.0803891610775,2.37854835956,2.68041601173,16.0824960704,1.20620149672,0.103203767343,1.10299772938
 01/07  06:00:00,39.4040133398,0.747323730957,0.236818660644,4.84451877199,2.68041601173,16.0824960704,0.02,0.0,0.02
 01/07  07:00:00,185.824298866,3.17840839121,10.3277853276,130.701504936,5.36083202345,21.4433280938,1.10313304442,0.0,1.10313304442
 01/07  08:00:00,151.496184667,3.17840839121,0.0,106.498260313,5.36083202345,26.5809105114,50.7369653285,49.6337340794,1.10323124907
 01/07  09:00:00,149.211394144,3.17840839121,0.0,87.9208408084,26.8041601173,31.2995447326,51.5585481532,51.5385481532,0.02
 01/07  10:00:00,142.845576635,3.17840839121,0.0,79.3073309918,26.8041601173,33.5472370403,54.1876734915,52.0005008366,2.1871726549
 01/07  11:00:00,136.479967606,3.17840839121,0.0,73.9050186663,26.8041601173,32.583940337,52.7262817638,51.6226779239,1.10360383988
 01/07  12:00:00,133.26494982,3.17840839121,0.0,68.4423085725,26.8041601173,34.8316326447,52.3765790273,51.2727965735,1.10378245378
 01/07  13:00:00,128.257097613,3.17840839121,0.0,64.7188519703,26.8041601173,33.5472370403,50.3033011743,49.1996679863,1.10363318792
 01/07  14:00:00,123.941462459,3.17840839121,0.0,62.9720080245,26.8041601173,30.9784458315,50.4498768923,49.3462246417,1.10365225063
 01/07  15:00:00,109.960729611,3.17840839121,0.0,77.4009297992,8.04124803518,21.3317032909,52.6855648659,51.5821027285,1.10346213745
 01/07  16:00:00,112.437919384,3.17840839121,0.0,81.1625151767,8.04124803518,20.0473076865,52.9046720298,51.8013092199,1.10336280985
 01/07  17:00:00,117.002740323,3.17840839121,0.0,85.4062372148,8.04124803518,20.3684065876,56.0510167199,54.9476236854,1.10339303447
 01/07  18:00:00,125.612977471,3.17840839121,0.0,94.3346234973,2.68041601173,18.0090894769,57.7232230401,57.7032230401,0.02
 01/07  19:00:00,33.5753521762,0.0,0.0,0.0,2.68041601173,16.0824960704,1.10312078119,0.0,1.10312078119
 01/07  20:00:00,33.5753521762,0.0,0.0,0.0,2.68041601173,16.0824960704,0.02,0.0,0.02
 01/07  21:00:00,37.9526619697,0.560492798217,0.154362895062,3.66245410021,2.68041601173,16.0824960704,1.17175067332,0.0687828373092,1.10296783601
 01/07  22:00:00,42.4009430957,0.934154663696,0.10493903457,7.78649722125,2.68041601173,16.0824960704,0.256365578526,0.236365578526,0.02
 01/07  23:00:00,41.5200497299,0.747323730957,0.0195058155965,7.17786800716,2.68041601173,16.0824960704,1.37630402769,0.273230431729,1.10307359596
 01/07  24:00:00,44.9229894883,0.934154663696,0.0,10.4134826484,2.68041601173,16.0824960704,1.22596245109,1.20596245109,0.02
 01/08  01:00:00,43.1580669358,0.747323730957,0.0,8.83539102866,2.68041601173,16.0824960704,2.29582157485,1.1928106506,1.10301092425
 01/08  02:00:00,46.8938882143,0.934154663696,0.0,12.3843813744,2.68041601173,16.0824960704,2.23068215994,2.21068215994,0.02
 01/08  03:00:00,48.3464977282,1.16913959409,1.22423685534,12.3777691026,2.68041601173,16.0824960704,2.9620289491,1.85902147357,1.10300747553
 01/08  04:00:00,56.2700119868,1.74263506803,2.25842363382,18.6936011088,2.68041601173,16.0824960704,2.98416165851,2.96416165851,0.02
 01/08  05:00:00,52.4007271665,1.45035016951,1.90479251209,15.4702323087,2.68041601173,16.0824960704,2.35759079381,2.33759079381,0.02
 01/08  06:00:00,58.6921124531,1.81293771189,2.31919918029,20.9846233848,2.68041601173,16.0824960704,4.50634333512,3.40327683017,1.10306650495
 01/08  07:00:00,55.2266961194,1.617497359,2.31898701513,17.714859569,2.68041601173,16.0824960704,2.64450704761,2.62450704761,0.02
 01/08  08:00:00,57.6636247599,2.14723209087,3.1988159307,23.6768912288,2.68041601173,16.0824960704,4.78329332558,3.68028466056,1.10300866502
 01/08  09:00:00,37.4367662675,1.45035016951,1.73001252219,15.4850513996,2.68041601173,16.0824960704,2.79330381575,2.77330381575,0.02
 01/08  10:00:00,37.2364329546,1.46142449261,1.28419832848,15.7194579573,2.68041601173,16.0824960704,4.6394584357,3.53650196818,1.10295646751
 01/08  11:00:00,28.4882027277,0.747323730957,0.0,8.96952682053,2.68041601173,16.0824960704,2.26953980417,2.24953980417,0.02
 01/08  12:00:00,29.8424829111,0.934154663696,0.0,10.1369760712,2.68041601173,16.0824960704,2.38733510413,2.36733510413,0.02
 01/08  13:00:00,26.5232526793,0.747323730957,0.0,7.00457677218,2.68041601173,16.0824960704,2.10358706011,1.00049472447,1.10309233564
 01/08  14:00:00,27.7381829981,0.934154663696,0.0111333604204,8.02154279774,2.68041601173,16.0824960704,1.6177534405,0.51459806973,1.10315537077
 01/08  15:00:00,25.5430575341,0.747323730957,0.111576697395,5.91280492958,2.68041601173,16.0824960704,0.104858306515,0.0848583065146,0.02
 01/08  16:00:00,27.3297818994,0.934154663696,0.221095991315,7.40317906815,2.68041601173,16.0824960704,0.0409487061288,0.0209487061288,0.02
 01/08  17:00:00,26.0441755229,0.747323730957,0.261393606518,6.26410600924,2.68041601173,16.0824960704,1.10301072713,0.0,1.10301072713
 01/08  18:00:00,34.4711083433,0.934154663696,0.296504686031,9.5344301507,2.68041601173,16.0824960704,0.02,0.0,0.02
 01/08  19:00:00,49.1251855095,1.41519884758,1.74627307752,12.3883614082,2.68041601173,16.0824960704,1.10295676541,0.0,1.10295676541
 01/08  20:00:00,55.3506789019,1.81293771189,2.0990411601,17.8633478537,2.68041601173,16.0824960704,0.0753992855863,0.0553992855863,0.02
 01/08  21:00:00,52.1080865329,1.45035016951,1.59179073194,15.4905934552,2.68041601173,16.0824960704,0.129821262705,0.109821262705,0.02
 01/08  22:00:00,57.8848737621,1.81293771189,1.87175808738,20.6248257866,2.68041601173,16.0824960704,1.51129897539,0.408208439133,1.10309053626
 01/08  23:00:00,53.9347690254,1.45035016951,1.45094246879,17.4581242109,2.68041601173,16.0824960704,0.384020874847,0.364020874847,0.02
 01/08  24:00:00,60.0254358367,1.81293771189,1.79202691501,22.8451190336,2.68041601173,16.0824960704,2.15911106099,1.05615516316,1.10295589783
 01/09  01:00:00,59.7753309906,1.45035016951,1.40767494374,17.9811216777,2.68041601173,21.4433280938,0.856506965583,0.836506965583,0.02